| time (UTC) | temp C | wind direction | speed KPH | gust KPH | rain 1hr cm | rain 24hr cm | rain mn cm | humidity % | barometer mb |
| 20260507070048 | 26 | 102 | 0.0 | 6.4 | 0.00 | 0.00 | 0.00 | 83 | 1017.9 |
| 20260507064551 | 26 | 128 | 0.0 | 6.4 | 0.00 | 0.00 | 0.00 | 83 | 1018.0 |
| 20260507063043 | 26 | 140 | 0.0 | 8.0 | 0.00 | 0.00 | 0.00 | 83 | 1018.2 |
| 20260507061543 | 26 | 206 | 1.6 | 9.7 | 0.00 | 0.00 | 0.00 | 83 | 1018.3 |
| 20260507060040 | 26 | 203 | 0.0 | 12.9 | 0.00 | 0.00 | 0.00 | 83 | 1018.6 |
| 20260507054548 | 26 | 86 | 1.6 | 9.7 | 0.00 | 0.00 | 0.00 | 83 | 1018.9 |
| 20260507053045 | 26 | 46 | 3.2 | 14.5 | 0.00 | 0.00 | 0.00 | 83 | 1018.8 |
| 20260507051537 | 26 | 101 | 1.6 | 12.9 | 0.00 | 0.00 | 0.00 | 83 | 1018.9 |
| 20260507050035 | 26 | 94 | 0.0 | 22.5 | 0.00 | 0.00 | 0.00 | 83 | 1019.2 |
| 20260507044533 | 26 | 82 | 3.2 | 16.1 | 0.00 | 0.00 | 0.00 | 82 | 1019.4 |
| 20260507043035 | 26 | 86 | 11.3 | 17.7 | 0.00 | 0.00 | 0.00 | 82 | 1019.6 |
| 20260507041526 | 26 | 67 | 8.0 | 20.9 | 0.00 | 0.00 | 0.00 | 82 | 1019.8 |
| 20260507040023 | 26 | 80 | 4.8 | 24.1 | 0.00 | 0.00 | 0.00 | 82 | 1019.8 |
| 20260507034521 | 27 | 66 | 6.4 | 22.5 | 0.00 | 0.00 | 0.00 | 82 | 1019.9 |
| 20260507033021 | 27 | 132 | 1.6 | 12.9 | 0.00 | 0.00 | 0.00 | 82 | 1020.1 |
| 20260507031520 | 27 | 186 | 1.6 | 16.1 | 0.00 | 0.00 | 0.00 | 81 | 1020.3 |
| 20260507030020 | 27 | 103 | 0.0 | 20.9 | 0.00 | 0.00 | 0.00 | 82 | 1020.4 |
| 20260507024518 | 27 | 87 | 4.8 | 20.9 | 0.00 | 0.00 | 0.00 | 81 | 1020.4 |
| 20260507023017 | 27 | 71 | 9.7 | 20.9 | 0.00 | 0.00 | 0.00 | 82 | 1020.4 |
| 20260507021517 | 27 | 69 | 14.5 | 24.1 | 0.00 | 0.00 | 0.00 | 82 | 1020.4 |
| 20260507020016 | 27 | 81 | 4.8 | 24.1 | 0.00 | 0.00 | 0.00 | 81 | 1020.3 |
| 20260507014517 | 27 | 80 | 6.4 | 24.1 | 0.00 | 0.00 | 0.00 | 81 | 1020.3 |
| 20260507013014 | 27 | 72 | 11.3 | 25.7 | 0.00 | 0.00 | 0.00 | 81 | 1020.1 |
| 20260507011527 | 27 | 63 | 12.9 | 22.5 | 0.00 | 0.00 | 0.00 | 81 | 1020.1 |
| 20260507010014 | 27 | 61 | 11.3 | 24.1 | 0.00 | 0.00 | 0.00 | 81 | 1019.9 |
| 20260507004612 | 27 | 83 | 4.8 | 16.1 | 0.00 | 0.00 | 0.00 | 81 | 1019.6 |
| 20260507003017 | 27 | 96 | 3.2 | 14.5 | 0.00 | 0.00 | 0.00 | 81 | 1019.6 |
| 20260507001511 | 27 | 143 | 1.6 | 14.5 | 0.00 | 0.00 | 0.00 | 81 | 1019.4 |
| 20260507000010 | 27 | 111 | 0.0 | 16.1 | 0.00 | 0.00 | 0.00 | 80 | 1019.3 |
| 20260506234511 | 27 | 121 | 1.6 | 14.5 | 0.00 | 0.00 | 0.00 | 80 | 1019.1 |
| 20260506233012 | 27 | 144 | 3.2 | 14.5 | 0.00 | 0.00 | 0.00 | 80 | 1018.8 |
| 20260506231509 | 27 | 129 | 4.8 | 16.1 | 0.00 | 0.00 | 0.00 | 80 | 1018.6 |
| 20260506230008 | 27 | 84 | 3.2 | 11.3 | 0.00 | 0.00 | 0.00 | 79 | 1018.6 |
| 20260506224512 | 27 | 137 | 3.2 | 17.7 | 0.00 | 0.00 | 0.00 | 79 | 1018.4 |
| 20260506223007 | 27 | 82 | 1.6 | 16.1 | 0.00 | 0.00 | 0.00 | 78 | 1018.3 |
| 20260506221506 | 27 | 142 | 1.6 | 17.7 | 0.00 | 0.00 | 0.00 | 78 | 1018.1 |
| 20260506220005 | 27 | 142 | 3.2 | 8.0 | 0.00 | 0.00 | 0.00 | 77 | 1017.9 |
| 20260506214504 | 28 | 65 | 0.0 | 16.1 | 0.00 | 0.00 | 0.00 | 76 | 1017.9 |
| 20260506213004 | 28 | 101 | 0.0 | 14.5 | 0.00 | 0.00 | 0.00 | 74 | 1017.7 |
| 20260506211503 | 30 | 73 | 3.2 | 16.1 | 0.00 | 0.00 | 0.00 | 73 | 1017.6 |
| 20260506210004 | 30 | 72 | 6.4 | 24.1 | 0.00 | 0.00 | 0.00 | 72 | 1017.6 |
| 20260506204504 | 30 | 94 | 6.4 | 25.7 | 0.00 | 0.00 | 0.00 | 74 | 1017.4 |
| 20260506203003 | 31 | 62 | 11.3 | 20.9 | 0.00 | 0.00 | 0.00 | 71 | 1017.4 |
| 20260506201503 | 32 | 70 | 11.3 | 24.1 | 0.00 | 0.00 | 0.00 | 70 | 1017.5 |
| 20260506200059 | 32 | 63 | 8.0 | 27.4 | 0.00 | 0.00 | 0.00 | 68 | 1017.6 |
| 20260506194558 | 32 | 76 | 14.5 | 22.5 | 0.00 | 0.00 | 0.00 | 68 | 1017.8 |
| 20260506193057 | 32 | 76 | 12.9 | 24.1 | 0.00 | 0.00 | 0.00 | 70 | 1017.9 |
| 20260506191559 | 31 | 77 | 16.1 | 22.5 | 0.00 | 0.00 | 0.00 | 70 | 1018.1 |
| 20260506190057 | 30 | 59 | 14.5 | 25.7 | 0.00 | 0.00 | 0.00 | 74 | 1018.2 |
| 20260506184559 | 31 | 76 | 12.9 | 25.7 | 0.00 | 0.00 | 0.00 | 72 | 1018.4 |
| 20260506183058 | 32 | 74 | 14.5 | 20.9 | 0.00 | 0.00 | 0.00 | 70 | 1018.8 |
| 20260506181556 | 30 | 69 | 16.1 | 20.9 | 0.00 | 0.00 | 0.00 | 73 | 1019.0 |
| 20260506180053 | 31 | 63 | 14.5 | 20.9 | 0.00 | 0.00 | 0.00 | 73 | 1019.1 |
| 20260506174605 | 31 | 76 | 12.9 | 20.9 | 0.00 | 0.00 | 0.00 | 72 | 1019.2 |
| 20260506173055 | 32 | 69 | 14.5 | 20.9 | 0.00 | 0.00 | 0.00 | 70 | 1019.4 |
| 20260506171547 | 33 | 66 | 12.9 | 19.3 | 0.00 | 0.00 | 0.00 | 66 | 1019.6 |
| 20260506170043 | 33 | 73 | 12.9 | 20.9 | 0.00 | 0.00 | 0.00 | 69 | 1019.8 |
| 20260506164547 | 33 | 72 | 14.5 | 24.1 | 0.00 | 0.00 | 0.00 | 67 | 1020.0 |
| 20260506163055 | 32 | 74 | 11.3 | 27.4 | 0.00 | 0.00 | 0.00 | 68 | 1020.1 |
| 20260506161539 | 32 | 55 | 14.5 | 27.4 | 0.00 | 0.00 | 0.00 | 68 | 1020.2 |
| 20260506160036 | 32 | 67 | 16.1 | 24.1 | 0.00 | 0.00 | 0.00 | 70 | 1020.3 |
| 20260506154538 | 30 | 74 | 16.1 | 20.9 | 0.00 | 0.00 | 0.00 | 75 | 1020.5 |
| 20260506153034 | 30 | 74 | 12.9 | 19.3 | 0.00 | 0.00 | 0.00 | 77 | 1020.6 |
| 20260506151539 | 30 | 76 | 12.9 | 17.7 | 0.00 | 0.00 | 0.00 | 75 | 1020.7 |
| 20260506150032 | 31 | 61 | 12.9 | 19.3 | 0.00 | 0.00 | 0.00 | 72 | 1020.8 |
| 20260506144530 | 32 | 76 | 14.5 | 20.9 | 0.00 | 0.03 | 0.00 | 71 | 1020.8 |
| 20260506143028 | 30 | 69 | 11.3 | 24.1 | 0.00 | 0.03 | 0.00 | 73 | 1020.6 |
| 20260506141527 | 31 | 57 | 6.4 | 27.4 | 0.00 | 0.03 | 0.00 | 71 | 1020.6 |
| 20260506140029 | 31 | 69 | 12.9 | 27.4 | 0.00 | 0.03 | 0.00 | 70 | 1020.6 |
| 20260506134523 | 31 | 60 | 16.1 | 29.0 | 0.00 | 0.03 | 0.00 | 71 | 1020.7 |
| 20260506133023 | 31 | 196 | 8.0 | 30.6 | 0.00 | 0.03 | 0.00 | 73 | 1020.6 |
| 20260506131521 | 30 | 92 | 9.7 | 20.9 | 0.00 | 0.03 | 0.00 | 76 | 1020.6 |
| 20260506130016 | 29 | 92 | 12.9 | 20.9 | 0.00 | 0.03 | 0.00 | 77 | 1020.5 |
| 20260506124514 | 29 | 138 | 6.4 | 22.5 | 0.00 | 0.03 | 0.00 | 78 | 1020.6 |
| 20260506123011 | 28 | 80 | 4.8 | 14.5 | 0.00 | 0.03 | 0.00 | 78 | 1020.5 |
| 20260506121508 | 28 | 111 | 6.4 | 20.9 | 0.00 | 0.03 | 0.00 | 79 | 1020.4 |
| 20260506120010 | 27 | 204 | 1.6 | 17.7 | 0.00 | 0.03 | 0.00 | 80 | 1020.1 |
| 20260506114504 | 27 | 100 | 6.4 | 12.9 | 0.00 | 0.03 | 0.00 | 80 | 1020.0 |
| 20260506113001 | 27 | 225 | 3.2 | 20.9 | 0.00 | 0.03 | 0.00 | 81 | 1019.9 |
| 20260506111600 | 27 | 54 | 6.4 | 20.9 | 0.00 | 0.03 | 0.00 | 81 | 1019.8 |
| 20260506110103 | 27 | 65 | 8.0 | 25.7 | 0.00 | 0.03 | 0.00 | 82 | 1019.7 |
| 20260506104601 | 26 | 63 | 11.3 | 19.3 | 0.00 | 0.03 | 0.00 | 83 | 1019.5 |
| 20260506103056 | 26 | 70 | 4.8 | 22.5 | 0.00 | 0.03 | 0.00 | 83 | 1019.4 |
| 20260506101608 | 26 | 89 | 3.2 | 16.1 | 0.00 | 0.03 | 0.00 | 83 | 1019.2 |
| 20260506100049 | 26 | 152 | 0.0 | 14.5 | 0.00 | 0.03 | 0.00 | 83 | 1019.3 |
| 20260506094550 | 26 | 132 | 1.6 | 12.9 | 0.00 | 0.03 | 0.00 | 82 | 1019.3 |
| 20260506093046 | 26 | 102 | 0.0 | 11.3 | 0.00 | 0.03 | 0.00 | 83 | 1019.2 |
| 20260506091545 | 26 | 78 | 9.7 | 22.5 | 0.00 | 0.03 | 0.00 | 83 | 1019.2 |
| 20260506090056 | 26 | 65 | 4.8 | 16.1 | 0.00 | 0.03 | 0.00 | 83 | 1018.9 |
| 20260506084551 | 26 | 185 | 0.0 | 6.4 | 0.00 | 0.03 | 0.00 | 83 | 1018.8 |
| 20260506083043 | 26 | 84 | 6.4 | 17.7 | 0.00 | 0.03 | 0.00 | 83 | 1018.8 |
| 20260506081543 | 26 | 92 | 9.7 | 19.3 | 0.00 | 0.03 | 0.00 | 83 | 1018.8 |
| 20260506073037 | 26 | 37 | 3.2 | 14.5 | 0.00 | 0.03 | 0.00 | 83 | 1018.5 |
| 20260506071535 | 26 | 92 | 4.8 | 16.1 | 0.00 | 0.03 | 0.00 | 83 | 1018.7 |